| time (UTC) | temp C | wind direction | speed KPH | gust KPH | rain 1hr cm | rain 24hr cm | rain mn cm | humidity % | barometer mb |
| 20260502213013 | 12 | 198 | 0.0 | 1.6 | 0.00 | 0.00 | 0.00 | 57 | 1016.9 |
| 20260502212013 | 12 | 198 | 0.0 | 1.6 | 0.00 | 0.00 | 0.00 | 56 | 1017.0 |
| 20260502211013 | 12 | 198 | 1.6 | 3.2 | 0.00 | 0.00 | 0.00 | 55 | 1017.0 |
| 20260502210012 | 12 | 198 | 0.0 | 0.0 | 0.00 | 0.00 | 0.00 | 53 | 1017.0 |
| 20260502205012 | 13 | 198 | 1.6 | 4.8 | 0.00 | 0.00 | 0.00 | 52 | 1017.0 |
| 20260502204012 | 13 | 198 | 1.6 | 4.8 | 0.00 | 0.00 | 0.00 | 52 | 1016.9 |
| 20260502203013 | 13 | 198 | 3.2 | 4.8 | 0.00 | 0.00 | 0.00 | 52 | 1016.9 |
| 20260502202012 | 14 | 198 | 3.2 | 6.4 | 0.00 | 0.00 | 0.00 | 52 | 1017.0 |
| 20260502201012 | 14 | 197 | 4.8 | 6.4 | 0.00 | 0.00 | 0.00 | 52 | 1017.0 |
| 20260502195012 | 15 | 196 | 1.6 | 3.2 | 0.00 | 0.00 | 0.00 | 51 | 1017.0 |
| 20260502194012 | 16 | 196 | 3.2 | 6.4 | 0.00 | 0.00 | 0.00 | 51 | 1017.0 |
| 20260502193012 | 16 | 189 | 0.0 | 0.0 | 0.00 | 0.00 | 0.00 | 51 | 1017.0 |
| 20260502192012 | 17 | 189 | 0.0 | 0.0 | 0.00 | 0.00 | 0.00 | 50 | 1016.9 |
| 20260502191012 | 18 | 189 | 0.0 | 0.0 | 0.00 | 0.00 | 0.00 | 48 | 1016.8 |
| 20260502190012 | 18 | 189 | 0.0 | 0.0 | 0.00 | 0.00 | 0.00 | 46 | 1016.8 |
| 20260502185012 | 20 | 189 | 0.0 | 0.0 | 0.00 | 0.00 | 0.00 | 44 | 1016.9 |
| 20260502184012 | 20 | 189 | 0.0 | 3.2 | 0.00 | 0.00 | 0.00 | 37 | 1016.8 |
| 20260502183012 | 21 | 189 | 0.0 | 3.2 | 0.00 | 0.00 | 0.00 | 35 | 1016.7 |
| 20260502182012 | 21 | 189 | 0.0 | 1.6 | 0.00 | 0.00 | 0.00 | 32 | 1016.7 |
| 20260502181012 | 22 | 189 | 1.6 | 4.8 | 0.00 | 0.00 | 0.00 | 30 | 1016.7 |
| 20260502164011 | 25 | 158 | 3.2 | 9.7 | 0.00 | 0.00 | 0.00 | 27 | 1017.0 |
| 20260502163011 | 25 | 181 | 3.2 | 6.4 | 0.00 | 0.00 | 0.00 | 26 | 1017.1 |
| 20260502162011 | 25 | 180 | 3.2 | 8.0 | 0.00 | 0.00 | 0.00 | 27 | 1017.2 |
| 20260502161011 | 26 | 219 | 1.6 | 9.7 | 0.00 | 0.00 | 0.00 | 25 | 1017.3 |
| 20260502152011 | 27 | 186 | 3.2 | 11.3 | 0.00 | 0.00 | 0.00 | 22 | 1017.8 |
| 20260502151012 | 27 | 146 | 4.8 | 12.9 | 0.00 | 0.00 | 0.00 | 22 | 1018.0 |
| 20260502123009 | 26 | 86 | 4.8 | 12.9 | 0.00 | 0.00 | 0.00 | 28 | 1020.2 |
| 20260502122010 | 26 | 86 | 4.8 | 12.9 | 0.00 | 0.00 | 0.00 | 28 | 1020.2 |
| 20260502121011 | 26 | 151 | 8.0 | 17.7 | 0.00 | 0.00 | 0.00 | 32 | 1020.4 |
| 20260502115009 | 25 | 142 | 9.7 | 19.3 | 0.00 | 0.00 | 0.00 | 32 | 1020.8 |
| 20260502114011 | 25 | 142 | 11.3 | 19.3 | 0.00 | 0.00 | 0.00 | 32 | 1020.8 |
| 20260502113009 | 25 | 113 | 8.0 | 17.7 | 0.00 | 0.00 | 0.00 | 28 | 1021.1 |
| 20260502112018 | 25 | 113 | 9.7 | 17.7 | 0.00 | 0.00 | 0.00 | 28 | 1021.1 |
| 20260502111010 | 25 | 79 | 8.0 | 20.9 | 0.00 | 0.00 | 0.00 | 27 | 1021.2 |
| 20260502110009 | 25 | 95 | 8.0 | 17.7 | 0.00 | 0.00 | 0.00 | 29 | 1021.3 |
| 20260502105009 | 24 | 104 | 6.4 | 17.7 | 0.00 | 0.00 | 0.00 | 31 | 1021.5 |
| 20260502104014 | 24 | 104 | 6.4 | 17.7 | 0.00 | 0.00 | 0.00 | 31 | 1021.5 |
| 20260502103014 | 24 | 161 | 6.4 | 17.7 | 0.00 | 0.00 | 0.00 | 31 | 1021.6 |
| 20260502102014 | 24 | 129 | 6.4 | 14.5 | 0.00 | 0.00 | 0.00 | 32 | 1021.9 |
| 20260502101014 | 23 | 119 | 6.4 | 14.5 | 0.00 | 0.00 | 0.00 | 34 | 1022.1 |
| 20260502091013 | 21 | 130 | 9.7 | 24.1 | 0.00 | 0.00 | 0.00 | 40 | 1023.0 |
| 20260502071013 | 13 | 117 | 3.2 | 9.7 | 0.00 | 0.00 | 0.00 | 55 | 1024.0 |
| 20260502070013 | 12 | 117 | 3.2 | 9.7 | 0.00 | 0.00 | 0.00 | 59 | 1023.9 |
| 20260502065013 | 11 | 119 | 4.8 | 8.0 | 0.00 | 0.00 | 0.00 | 61 | 1023.9 |
| 20260502064013 | 10 | 134 | 4.8 | 11.3 | 0.00 | 0.00 | 0.00 | 62 | 1024.1 |
| 20260502063013 | 9 | 178 | 3.2 | 6.4 | 0.00 | 0.00 | 0.00 | 65 | 1024.2 |
| 20260502062013 | 8 | 244 | 1.6 | 4.8 | 0.00 | 0.00 | 0.00 | 69 | 1024.1 |
| 20260502061013 | 7 | 246 | 1.6 | 3.2 | 0.00 | 0.00 | 0.00 | 72 | 1024.1 |
| 20260502060013 | 6 | 246 | 0.0 | 3.2 | 0.00 | 0.00 | 0.00 | 72 | 1024.1 |
| 20260502055013 | 6 | 246 | 0.0 | 1.6 | 0.00 | 0.00 | 0.00 | 74 | 1024.2 |
| 20260502054012 | 5 | 246 | 0.0 | 3.2 | 0.00 | 0.00 | 0.00 | 80 | 1024.4 |
| 20260502053012 | 5 | 246 | 0.0 | 0.0 | 0.00 | 0.00 | 0.00 | 83 | 1024.3 |
| 20260502052012 | 4 | 246 | 0.0 | 0.0 | 0.00 | 0.00 | 0.00 | 83 | 1024.3 |
| 20260502051012 | 4 | 246 | 0.0 | 0.0 | 0.00 | 0.00 | 0.00 | 83 | 1024.2 |
| 20260502050013 | 4 | 246 | 0.0 | 1.6 | 0.00 | 0.00 | 0.00 | 83 | 1024.3 |
| 20260502045012 | 3 | 246 | 0.0 | 3.2 | 0.00 | 0.00 | 0.00 | 83 | 1024.3 |
| 20260502044012 | 3 | 246 | 0.0 | 3.2 | 0.00 | 0.00 | 0.00 | 80 | 1024.3 |
| 20260502043012 | 3 | 246 | 1.6 | 3.2 | 0.00 | 0.00 | 0.00 | 78 | 1024.3 |
| 20260502042012 | 3 | 246 | 3.2 | 3.2 | 0.00 | 0.00 | 0.00 | 78 | 1024.3 |
| 20260502041012 | 3 | 246 | 3.2 | 4.8 | 0.00 | 0.00 | 0.00 | 77 | 1024.3 |
| 20260502040012 | 3 | 246 | 1.6 | 4.8 | 0.00 | 0.00 | 0.00 | 77 | 1024.3 |
| 20260502035012 | 3 | 246 | 1.6 | 3.2 | 0.00 | 0.00 | 0.00 | 76 | 1024.3 |
| 20260502034012 | 3 | 246 | 1.6 | 4.8 | 0.00 | 0.00 | 0.00 | 76 | 1024.3 |
| 20260502033012 | 4 | 246 | 0.0 | 3.2 | 0.00 | 0.00 | 0.00 | 75 | 1024.4 |
| 20260502032012 | 4 | 151 | 3.2 | 4.8 | 0.00 | 0.00 | 0.00 | 74 | 1024.4 |
| 20260502031012 | 4 | 152 | 0.0 | 3.2 | 0.00 | 0.00 | 0.00 | 74 | 1024.5 |
| 20260502030012 | 4 | 151 | 0.0 | 3.2 | 0.00 | 0.00 | 0.00 | 73 | 1024.4 |
| 20260502025012 | 5 | 151 | 1.6 | 3.2 | 0.00 | 0.00 | 0.00 | 73 | 1024.5 |
| 20260502024012 | 5 | 151 | 1.6 | 4.8 | 0.00 | 0.00 | 0.00 | 73 | 1024.6 |
| 20260502023011 | 5 | 151 | 3.2 | 4.8 | 0.00 | 0.00 | 0.00 | 73 | 1024.7 |
| 20260502022012 | 5 | 148 | 3.2 | 6.4 | 0.00 | 0.00 | 0.00 | 74 | 1024.7 |
| 20260502021012 | 5 | 123 | 1.6 | 4.8 | 0.00 | 0.00 | 0.00 | 74 | 1024.7 |
| 20260502020011 | 5 | 122 | 3.2 | 4.8 | 0.00 | 0.00 | 0.00 | 74 | 1024.8 |
| 20260502015012 | 5 | 121 | 1.6 | 3.2 | 0.00 | 0.00 | 0.00 | 74 | 1024.8 |
| 20260502014011 | 5 | 121 | 0.0 | 1.6 | 0.00 | 0.00 | 0.00 | 72 | 1024.9 |
| 20260502013011 | 5 | 121 | 0.0 | 0.0 | 0.00 | 0.00 | 0.00 | 72 | 1024.8 |
| 20260502012011 | 5 | 121 | 0.0 | 0.0 | 0.00 | 0.00 | 0.00 | 72 | 1024.9 |
| 20260502011011 | 5 | 121 | 0.0 | 0.0 | 0.00 | 0.00 | 0.00 | 71 | 1024.9 |
| 20260502010012 | 6 | 121 | 0.0 | 0.0 | 0.00 | 0.00 | 0.00 | 71 | 1024.9 |
| 20260502005011 | 6 | 121 | 0.0 | 0.0 | 0.00 | 0.00 | 0.00 | 71 | 1024.9 |
| 20260502004011 | 6 | 121 | 0.0 | 0.0 | 0.00 | 0.00 | 0.00 | 70 | 1024.9 |
| 20260502003011 | 6 | 121 | 0.0 | 0.0 | 0.00 | 0.00 | 0.00 | 70 | 1025.0 |
| 20260502002011 | 6 | 121 | 0.0 | 0.0 | 0.00 | 0.00 | 0.00 | 69 | 1024.9 |
| 20260502001011 | 6 | 121 | 0.0 | 1.6 | 0.00 | 0.00 | 0.00 | 70 | 1025.0 |
| 20260502000011 | 6 | 121 | 0.0 | 0.0 | 0.00 | 0.00 | 0.00 | 69 | 1025.1 |
| 20260501235011 | 7 | 121 | 0.0 | 0.0 | 0.00 | 0.00 | 0.00 | 69 | 1025.0 |
| 20260501234011 | 7 | 121 | 0.0 | 1.6 | 0.00 | 0.00 | 0.00 | 68 | 1025.1 |
| 20260501233011 | 7 | 121 | 0.0 | 0.0 | 0.00 | 0.00 | 0.00 | 67 | 1025.1 |
| 20260501232011 | 7 | 121 | 0.0 | 0.0 | 0.00 | 0.00 | 0.00 | 67 | 1025.1 |
| 20260501231011 | 7 | 121 | 0.0 | 1.6 | 0.00 | 0.00 | 0.00 | 66 | 1025.2 |
| 20260501230011 | 8 | 121 | 1.6 | 3.2 | 0.00 | 0.00 | 0.00 | 66 | 1025.3 |
| 20260501225011 | 8 | 121 | 3.2 | 4.8 | 0.00 | 0.00 | 0.00 | 67 | 1025.3 |
| 20260501224011 | 8 | 121 | 0.0 | 4.8 | 0.00 | 0.00 | 0.00 | 66 | 1025.3 |
| 20260501223011 | 8 | 119 | 0.0 | 0.0 | 0.00 | 0.00 | 0.00 | 66 | 1025.3 |
| 20260501222011 | 8 | 119 | 0.0 | 0.0 | 0.00 | 0.00 | 0.00 | 64 | 1025.4 |
| 20260501221011 | 8 | 119 | 0.0 | 0.0 | 0.00 | 0.00 | 0.00 | 64 | 1025.3 |
| 20260501220011 | 9 | 119 | 0.0 | 0.0 | 0.00 | 0.00 | 0.00 | 64 | 1025.2 |
| 20260501215011 | 9 | 119 | 0.0 | 0.0 | 0.00 | 0.00 | 0.00 | 63 | 1025.3 |
| 20260501214011 | 9 | 119 | 0.0 | 0.0 | 0.00 | 0.00 | 0.00 | 63 | 1025.2 |